Location: Gro�wechsungen
(51.4926°N, 10.6901°E)
Time: 18:21:23
(UTC+00:00)

Cosmos 2082 Rocket - Pass Details

Date: 26 January 2021
Orbit: 832 x 854 km, 71.0° (Epoch: 05 March)

Event Time Altitude Azimuth Distance (km) Brightness Sun altitude
Rises 16:20:32 0° 329° (NNW) 3,438 5.5 -4.2°
Reaches altitude 10° 16:23:38 10° 345° (NNW) 2,498 4.6 -4.6°
Maximum altitude 16:27:57 21° 34° (NE) 1,817 3.5 -5.2°
Drops below altitude 10° 16:32:16 10° 84° (E) 2,486 4.0 -5.8°
Enters shadow 16:34:14 - 95° (E) 3,066 4.6 -6.1°
